Weather History for VDPP - January, 2013

Change the Weather History Date:

Thursday, January 10, 2013

  Actual Average Record
Temperature  
Mean Temperature 84 °F -  
Max Temperature 91 °F 87 °F - ()
Min Temperature 77 °F 72 °F - ()
Cooling Degree Days 19    
Growing Degree Days 34 (Base 50)    
Moisture  
Dew Point 65 °F    
Average Humidity 50    
Maximum Humidity 78    
Minimum Humidity 38    
Precipitation  
Precipitation 0.00 in - - ()
Sea Level Pressure  
Sea Level Pressure 29.81 in    
Wind  
Wind Speed 6 mph ()    
Max Wind Speed 14 mph    
Max Gust Speed -    
Visibility 6.1 miles    
Events      
T = Trace of Precipitation, MM = Missing Value Source: Averaged Metar Reports

Daily Weather History Graph

Daily Weather History Graph

Search for Another Location

Airport or City:

Trip Planner

Search our weather history database for the weather conditions in past years. The results will help you decide how hot, cold, wet, or windy it might be!

Date:

Astronomy

Jan. 10, 2013 Rise Set
Actual Time 6:23 AM ICT 5:53 PM ICT
Civil Twilight 6:00 AM ICT 6:15 PM ICT
Nautical Twilight 5:34 AM ICT 6:41 PM ICT
Astronomical Twilight 5:08 AM ICT 7:08 PM ICT
Moon 4:30 AM ICT (1/10) 4:23 PM ICT (1/10)
Length of Visible Light 12h 15m
Length of Day
11h 29m
Waning Crescent, 4% of the Moon is Illuminated
Jan 10
Waning Crescent
Jan 12
New
Jan 19
First Quarter
Jan 27
Full
Feb 3
Last Quarter

Hourly Weather History & Observations

Time (ICT) Temp. Heat Index Dew Point Humidity Pressure Visibility Wind Dir Wind Speed Gust Speed Precip Events Conditions
1:00 AM 80.6 °F 83.9 °F 69.8 °F 70% 29.80 in 5.6 mi North 1.2 mph - N/A   Partly Cloudy
6:00 AM 77.0 °F - 69.8 °F 78% 29.80 in 6.2 mi ENE 8.1 mph - N/A   Scattered Clouds
7:00 AM 77.0 °F - 68.0 °F 74% 29.83 in 5.6 mi ENE 8.1 mph - N/A   Scattered Clouds
7:30 AM 78.8 °F - 68.0 °F 69% 29.83 in 5.6 mi ENE 9.2 mph - N/A   Scattered Clouds
8:00 AM 80.6 °F 82.7 °F 66.2 °F 61% 29.86 in 6.2 mi East 9.2 mph - N/A   Scattered Clouds
8:30 AM 82.4 °F 84.6 °F 66.2 °F 58% 29.86 in 6.2 mi ENE 9.2 mph - N/A   Partly Cloudy
9:00 AM 84.2 °F 86.6 °F 66.2 °F 55% 29.86 in 6.2 mi NE 9.2 mph - N/A   Partly Cloudy
9:30 AM 86.0 °F 88.2 °F 66.2 °F 51% 29.86 in 6.2 mi East 8.1 mph - N/A   Partly Cloudy
10:00 AM 86.0 °F 87.3 °F 64.4 °F 48% 29.86 in 6.2 mi ENE 9.2 mph - N/A   Partly Cloudy
10:30 AM 86.0 °F 87.3 °F 64.4 °F 48% 29.86 in 6.2 mi ENE 8.1 mph - N/A   Partly Cloudy
11:00 AM 86.0 °F 87.3 °F 64.4 °F 48% 29.86 in 6.2 mi NNE 9.2 mph - N/A   Partly Cloudy
12:00 PM 89.6 °F 91.1 °F 64.4 °F 43% 29.83 in 6.2 mi ENE 5.8 mph - N/A   Partly Cloudy
12:30 PM 89.6 °F 91.1 °F 64.4 °F 43% 29.83 in 6.2 mi NE 12.7 mph - N/A   Partly Cloudy
1:00 PM 89.6 °F 91.1 °F 64.4 °F 43% 29.80 in 6.2 mi ENE 11.5 mph - N/A   Partly Cloudy
1:30 PM 91.4 °F 92.1 °F 62.6 °F 38% 29.77 in 6.2 mi East 13.8 mph - N/A   Partly Cloudy
2:00 PM 91.4 °F 92.1 °F 62.6 °F 38% 29.77 in 6.2 mi NE 12.7 mph - N/A   Scattered Clouds
2:30 PM 91.4 °F 92.1 °F 62.6 °F 38% 29.77 in 6.2 mi NE 11.5 mph - N/A   Scattered Clouds
3:00 PM 91.4 °F 92.1 °F 62.6 °F 38% 29.74 in 6.2 mi NE 10.4 mph - N/A   Scattered Clouds
3:30 PM 91.4 °F 93.2 °F 64.4 °F 41% 29.74 in 6.2 mi NE 11.5 mph - N/A   Scattered Clouds
4:00 PM 91.4 °F 93.2 °F 64.4 °F 41% 29.74 in 6.2 mi NNE 5.8 mph - N/A   Scattered Clouds
4:30 PM 91.4 °F 92.1 °F 62.6 °F 38% 29.74 in - NE 3.5 mph - N/A   Scattered Clouds
5:00 PM 91.4 °F 92.1 °F 62.6 °F 38% 29.77 in 6.2 mi North 6.9 mph - N/A   Scattered Clouds
5:30 PM 91.4 °F 93.2 °F 64.4 °F 41% 29.77 in 6.2 mi NE 5.8 mph - N/A   Scattered Clouds
6:00 PM 89.6 °F 91.1 °F 64.4 °F 43% 29.77 in 5.6 mi NE 5.8 mph - N/A   Scattered Clouds
6:30 PM 87.8 °F 89.4 °F 64.4 °F 46% 29.77 in 5.6 mi NNE 4.6 mph - N/A   Scattered Clouds
7:00 PM 87.8 °F 90.4 °F 66.2 °F 49% 29.77 in 5.6 mi NNE 3.5 mph - N/A   Scattered Clouds
7:30 PM 87.8 °F 90.4 °F 66.2 °F 49% 29.80 in 5.6 mi NNE 4.6 mph - N/A   Scattered Clouds
8:00 PM 86.0 °F 88.2 °F 66.2 °F 51% 29.80 in 5.6 mi NNE 4.6 mph - N/A   Scattered Clouds
8:30 PM 86.0 °F 88.2 °F 66.2 °F 51% 29.80 in 6.2 mi NE 4.6 mph - N/A   Scattered Clouds
9:00 PM 86.0 °F 88.2 °F 66.2 °F 51% 29.80 in 6.2 mi ENE 4.6 mph - N/A   Scattered Clouds
9:30 PM 84.2 °F 87.3 °F 68.0 °F 58% 29.83 in 6.2 mi NE 3.5 mph - N/A   Scattered Clouds
10:00 PM 84.2 °F 87.3 °F 68.0 °F 58% 29.83 in 6.2 mi ENE 2.3 mph - N/A   Scattered Clouds
10:30 PM 84.2 °F 86.6 °F 66.2 °F 55% 29.83 in 6.2 mi ESE 4.6 mph - N/A   Scattered Clouds
11:00 PM 84.2 °F 86.6 °F 66.2 °F 55% 29.83 in 6.2 mi ESE 3.5 mph - N/A   Scattered Clouds
11:30 PM 84.2 °F 87.3 °F 68.0 °F 58% 29.83 in 6.2 mi SE 1.2 mph - N/A   Scattered Clouds